RH
92 92 92 92 90 90 89 88 90 88 86 85 85 87 87 88 60 71 73 61 68 59 46 46 46 55 41 76 84 68 94 84 73 63 45 37 34 26 30 48 88 88 79 75 99
92 92 91 91 90 87 87 87 88 85 83 83 86 86 86 85 60 74 63 68 58 60 39 54 61 61 69 55 83 79 76 74 58 52 47 43 36 32 22 66 80 92 89 99 100
92 91 91 89 87 86 86 86 85 84 83 82 87 84 59 67 65 71 65 50 46 43 38 40 43 53 76 58 57 80 88 58 50 46 47 46 41 44 43 35 64 92 88 97 98
93 93 91 89 88 83 82 83 84 82 82 83 86 78 47 56 23 70 65 49 44 41 41 41 46 53 66 79 65 69 57 59 62 51 62 62 55 60 38 28 50 84 77 92 96
94 93 90 87 88 78 57 77 79 79 80 84 86 68 58 46 48 43 42 38 32 34 38 46 53 54 66 59 61 73 62 52 48 52 57 63 67 59 50 40 83 85 83 92 92
94 93 91 89 79 54 18 29 75 61 64 69 78 61 60 48 35 44 36 31 31 36 41 47 53 51 60 65 67 60 68 65 56 53 56 61 58 46 39 88 93 76 88 92 96
94 87 70 72 69 30 19 25 51 40 40 42 57 62 62 47 32 33 35 31 31 35 43 42 44 56 58 72 61 66 82 65 58 64 65 63 71 63 43 96 82 75 89 96 96
95 88 63 71 51 28 19 14 21 36 39 50 61 59 52 36 32 29 30 30 30 32 39 38 44 59 66 70 77 81 76 82 51 53 64 73 70 51 53 94 79 75 91 97 97
94 61 61 65 42 26 16 13 21 27 35 35 46 55 35 28 29 32 35 37 37 38 44 47 49 68 80 89 98 99 96 84 68 57 58 65 76 61 53 84 87 76 90 97 98
94 55 51 47 42 30 22 13 22 23 36 41 38 33 27 37 36 35 41 43 48 56 59 64 71 84 96 93 92 92 94 88 83 66 71 71 80 74 56 88 88 87 80 98 98
66 34 32 36 45 36 26 22 50 28 44 63 59 56 40 39 39 36 51 53 58 66 83 79 96 89 89 80 81 83 91 96 75 70 87 76 80 61 52 87 97 94 89 99 98
53 36 25 27 34 32 39 71 68 73 74 61 65 68 56 51 54 40 58 70 84 94 85 75 89 84 77 69 91 93 92 92 76 80 97 87 74 58 51 81 89 94 94 98 99
39 32 27 22 31 32 54 63 83 80 80 54 43 52 37 38 48 58 68 81 88 80 79 90 77 73 98 83 97 85 95 91 85 97 98 85 78 80 64 85 96 90 91 94 97
40 32 34 21 24 42 54 57 80 80 74 34 40 35 39 46 47 44 66 81 80 88 88 86 82 87 85 97 93 97 75 76 89 94 97 86 96 88 70 99 92 99 98 92 99
37 30 38 33 37 43 50 62 79 73 37 31 46 34 43 46 46 48 57 72 92 84 83 72 78 84 97 99 77 83 68 75 87 96 98 94 92 68 87 100 91 84 96 99 100
37 29 35 39 41 41 53 76 75 62 36 56 52 58 65 58 52 58 65 63 73 84 78 86 67 82 100 95 93 80 81 98 98 97 95 94 80 83 96 98 85 96 100 100 99
38 32 36 35 44 49 64 62 67 54 50 53 69 65 72 69 66 72 82 90 94 94 90 76 72 62 92 93 73 88 94 97 94 95 91 96 84 97 91 89 96 100 99 100 100
32 34 37 35 40 46 39 61 42 62 83 60 69 71 74 72 65 80 81 85 86 91 95 98 87 76 73 100 100 96 96 96 94 98 96 97 95 99 90 89 99 99 99 97 98
28 36 36 35 39 44 60 80 76 81 66 77 74 82 80 75 78 80 91 77 84 94 98 98 82 66 76 78 93 78 88 62 96 96 93 96 85 82 84 96 96 99 98 99 98
34 58 42 31 34 29 83 73 67 57 66 79 96 84 98 88 86 92 97 74 85 76 90 93 96 73 85 67 68 74 68 77 88 95 95 95 95 93 85 94 97 100 99 99 99
52 60 43 34 29 66 79 70 62 48 60 88 91 92 92 99 96 100 89 75 82 84 89 95 97 73 74 90 95 88 93 87 77 90 93 94 96 87 92 94 98 100 99 98 98
60 63 48 31 72 96 82 77 50 54 56 70 86 96 93 90 99 99 95 80 74 85 94 88 98 97 81 64 75 97 92 91 89 80 95 91 94 92 94 98 98 100 100 99 98
70 78 56 26 70 88 64 54 59 60 62 65 72 77 74 89 95 90 82 66 66 88 92 92 94 95 74 66 64 97 86 80 89 90 99 90 86 90 88 93 96 100 100 98 91
79 78 79 89 89 71 80 64 75 57 63 64 73 69 82 87 78 90 78 66 63 82 64 84 96 95 96 95 96 96 95 83 84 94 92 92 89 90 94 94 97 100 100 100 93
81 84 70 79 86 85 83 84 81 76 60 66 71 76 96 97 100 94 83 71 69 77 79 90 99 98 89 88 81 94 96 94 94 87 87 86 99 85 88 99 98 95 98 100 100
92 86 89 90 75 87 92 92 77 78 76 73 83 72 91 100 87 96 92 86 91 85 95 91 97 97 94 74 84 92 89 90 95 90 85 88 90 73 90 92 96 94 98 94 93
84 79 84 84 95 89 89 82 75 76 66 71 81 94 98 87 81 83 79 88 94 98 98 96 97 93 98 83 85 86 98 98 94 93 94 90 76 78 83 77 86 93 95 90 96
Wind_Speed
19 19 20 20 21 22 23 23 23 22 22 23 22 21 19 17 16 15 10 4 8 11 11 13 11 11 5 2 3 6 5 11 6 6 5 3 1 2 2 5 2 2 5 6 23
20 20 21 22 23 23 23 23 23 22 22 20 20 18 16 14 9 17 11 8 7 11 12 10 6 9 3 2 4 8 11 8 4 4 5 5 3 6 2 2 1 1 1 22 29
20 21 22 22 24 24 24 23 22 22 20 18 17 16 13 10 4 2 7 9 10 14 10 7 6 4 1 2 4 6 25 1 3 2 5 6 5 5 8 4 6 8 17 19 24
21 22 23 24 25 25 25 23 22 22 19 16 14 15 10 5 3 2 8 8 11 11 9 5 5 4 2 4 4 14 17 13 14 7 5 3 6 10 1 4 9 10 20 18 18
22 23 24 26 27 28 25 25 24 23 19 13 9 12 4 5 2 3 13 8 13 11 8 2 1 2 3 3 6 10 13 16 20 16 11 12 9 5 10 11 3 10 17 15 15
23 25 26 27 28 28 28 28 26 23 15 8 6 7 3 7 6 8 8 17 15 10 5 3 5 6 6 7 7 5 9 13 12 16 10 17 15 5 5 4 8 17 13 12 13
24 25 27 28 29 27 30 31 27 13 13 4 6 4 5 4 10 12 13 17 16 14 3 8 9 4 2 5 8 9 8 9 12 8 8 8 18 18 5 8 12 16 11 9 11
24 26 28 29 30 27 31 34 18 9 14 3 3 3 2 7 12 17 19 21 19 19 14 16 12 6 4 2 6 5 3 7 10 11 8 9 18 24 8 12 13 13 10 10 13
24 26 28 28 27 27 31 30 11 10 9 6 4 3 3 12 16 22 18 13 20 14 10 15 4 6 3 4 7 5 4 5 9 10 8 15 10 11 8 11 13 14 10 11 11
24 26 27 26 22 26 31 15 7 9 5 3 8 3 7 7 16 16 16 19 7 5 5 5 2 1 0 4 8 4 4 5 9 4 12 11 13 8 10 10 12 14 11 10 12
25 26 26 25 17 23 31 7 9 6 12 2 2 2 6 19 8 9 18 19 5 4 3 2 1 8 10 11 13 10 12 12 10 10 10 14 11 13 6 10 11 10 13 8 10
26 27 26 24 10 20 25 7 1 2 5 2 4 6 13 7 4 6 19 8 5 5 7 3 7 8 9 10 11 12 12 10 12 6 5 7 14 9 3 5 11 10 13 13 8
27 26 24 23 6 18 14 10 1 3 0 5 5 4 6 5 4 8 8 6 2 6 10 5 7 11 8 10 8 9 8 5 7 5 9 4 3 2 1 4 4 9 10 15 16
26 26 22 21 2 14 3 15 2 3 4 8 6 5 9 8 2 6 9 2 5 6 6 6 4 8 13 8 8 4 8 10 4 3 3 3 2 2 4 1 7 9 11 12 10
27 26 18 13 8 4 13 8 3 0 3 12 8 4 11 4 7 8 7 5 3 6 4 5 6 14 14 2 7 7 2 7 1 3 2 3 4 1 7 3 7 9 7 7 6
26 24 13 9 9 9 16 2 3 5 4 7 6 8 10 6 8 9 7 7 2 4 4 8 6 2 4 5 3 3 1 2 1 1 3 3 4 3 3 4 4 5 7 7 8
25 21 7 10 11 18 6 3 5 6 4 8 5 8 8 6 6 8 7 8 11 9 8 8 4 4 4 5 4 5 3 3 3 4 1 4 4 1 6 6 4 5 7 7 7
24 13 5 7 19 13 2 5 8 2 4 4 5 10 4 9 5 7 7 8 3 6 4 5 8 8 5 3 3 3 1 3 2 2 1 3 2 3 5 5 5 10 9 9 8
22 10 1 17 13 7 5 6 5 5 4 6 9 5 5 4 2 7 4 8 3 6 5 4 5 5 3 3 1 4 3 1 2 1 2 1 2 1 3 7 8 8 9 8 8
15 7 3 17 8 3 5 4 3 2 2 2 2 4 4 6 7 6 4 3 7 5 2 3 6 2 7 4 2 0 5 3 3 2 2 2 2 2 5 5 4 3 6 5 5
6 3 6 12 4 6 4 3 2 2 1 3 1 4 3 3 1 3 3 5 5 8 4 3 2 8 4 5 5 6 4 4 2 2 3 2 1 2 4 4 2 2 3 3 3
2 2 9 10 4 1 2 4 1 1 2 0 1 3 2 3 3 3 3 5 7 5 7 2 3 4 4 5 2 2 4 2 3 5 2 3 1 2 2 4 2 3 2 2 2
1 2 6 5 3 2 2 1 1 0 1 1 1 1 1 2 3 4 3 3 8 5 11 5 2 4 8 5 4 5 6 3 2 1 2 3 2 3 4 6 5 4 3 2 4
2 2 4 4 1 5 4 2 1 1 2 1 2 2 3 3 2 4 4 4 12 3 13 2 1 3 3 4 3 5 8 7 1 3 2 1 2 6 5 3 3 2 1 0 2
2 3 3 2 3 3 3 3 2 1 1 1 1 3 3 3 4 3 2 7 4 6 5 4 2 3 6 8 3 2 4 8 5 1 3 2 2 4 4 2 2 2 1 3 3
3 3 2 1 3 4 3 4 5 2 3 2 3 2 3 4 6 4 4 1 3 6 3 4 2 4 3 5 6 0 6 4 4 4 5 4 3 2 3 4 2 1 2 3 2
4 2 4 1 2 4 4 5 5 4 2 5 4 1 3 6 6 8 6 6 6 3 3 3 3 5 4 4 5 4 3 3 2 2 2 1 0 1 2 3 2 3 4 3 2
Wind_Direction
12 9 6 3 359 356 355 352 351 348 346 345 342 340 340 341 11 63 50 53 20 14 15 15 13 4 332 221 274 143 245 248 254 164 248 331 144 339 53 124 59 310 168 188 146
9 6 4 0 356 353 352 351 348 345 343 343 342 341 341 342 58 51 42 47 10 359 354 4 354 351 351 270 229 209 227 241 209 206 299 331 23 332 277 150 108 37 47 140 141
6 4 1 358 353 350 348 349 346 341 340 340 341 337 342 336 87 16 18 6 2 352 2 4 348 4 264 275 235 246 240 178 244 326 11 327 326 333 353 249 210 184 162 158 149
5 1 359 356 350 348 346 346 344 338 336 333 337 337 346 355 98 353 342 344 346 351 353 353 2 1 297 267 300 268 272 280 266 296 296 281 312 325 279 276 302 186 170 159 160
1 359 356 354 348 345 347 345 342 336 329 324 330 340 8 47 136 18 349 352 336 322 309 295 306 234 243 267 306 268 288 280 279 286 287 297 265 248 281 289 125 159 158 166 158
359 356 354 352 349 346 351 351 341 338 339 334 342 350 56 73 327 339 342 331 337 323 271 221 228 215 245 231 229 284 309 292 288 284 279 265 285 182 241 95 149 171 165 166 152
358 356 354 351 349 349 350 350 343 358 15 31 10 29 59 101 359 336 319 322 320 316 244 252 252 180 212 302 262 264 282 288 269 238 238 227 260 243 227 157 185 180 169 146 138
356 355 354 351 350 351 351 348 354 11 332 334 21 51 114 8 336 329 325 316 319 311 268 269 247 204 184 276 313 271 254 256 250 218 215 173 251 263 192 165 190 193 175 148 143
355 357 354 353 351 353 352 344 357 5 42 101 36 28 0 344 336 338 334 307 308 295 278 292 196 207 151 246 266 220 247 239 288 218 227 194 238 252 214 179 175 192 179 149 140
356 356 355 355 354 357 353 348 11 47 63 61 43 29 350 311 321 329 348 326 279 318 342 44 40 238 69 218 256 222 258 261 250 248 228 210 215 276 204 174 173 182 174 163 151
356 355 356 354 354 4 4 22 12 357 31 65 301 253 274 313 329 327 345 327 354 33 350 283 299 252 240 229 246 270 253 261 274 275 302 212 194 196 250 190 167 171 159 151 145
354 353 354 354 356 7 27 65 63 272 317 290 251 268 274 280 294 310 354 6 4 344 338 296 268 289 296 256 246 269 274 266 270 295 236 228 201 203 166 229 170 167 159 155 132
351 351 351 353 12 6 42 37 296 198 77 305 252 266 299 336 308 313 22 322 341 334 326 287 277 319 286 264 250 249 257 248 271 345 254 146 53 203 69 17 171 176 161 165 159
350 350 351 355 20 352 54 357 120 186 72 342 347 355 345 334 335 346 4 356 341 315 319 274 284 277 293 266 201 267 228 242 279 318 127 22 143 186 208 11 188 134 146 162 144
346 348 349 5 332 20 326 337 154 276 17 328 317 319 316 53 285 331 347 0 300 301 302 271 309 326 307 294 159 238 230 196 233 337 21 15 107 205 133 185 170 163 120 89 87
342 344 345 348 341 332 335 147 137 41 286 332 334 341 358 357 342 325 9 359 241 322 291 261 282 318 299 314 316 306 99 102 109 139 33 305 98 4 37 338 160 108 97 105 112
339 343 347 351 337 328 345 87 27 84 2 337 338 341 337 319 325 11 348 8 30 350 1 323 312 307 354 329 7 48 16 5 19 32 184 334 63 168 332 339 307 132 100 74 81
338 343 330 349 334 336 35 46 66 285 307 317 312 315 336 1 345 338 3 12 351 16 316 350 334 2 354 349 318 315 13 128 148 129 172 63 56 2 357 9 53 89 95 79 64
338 344 12 340 341 343 69 50 189 216 269 322 326 347 329 1 354 3 36 7 342 357 356 332 285 326 259 292 259 331 41 313 86 58 76 50 41 142 83 58 52 79 84 80 70
339 337 329 347 348 58 72 147 196 174 322 46 336 15 323 329 1 29 1 303 344 341 226 317 294 294 299 345 324 328 320 32 349 75 51 90 66 4 353 38 86 93 90 89 94
348 17 338 351 7 50 108 190 217 234 154 166 228 302 290 294 153 301 309 293 6 314 354 325 290 303 0 8 341 348 8 0 127 111 143 134 21 257 275 303 251 119 101 103 112
37 354 351 357 46 11 121 187 262 248 54 51 215 239 280 311 302 281 255 213 2 329 353 301 310 283 272 316 319 307 338 41 84 311 70 127 260 342 357 309 204 137 92 26 68
92 272 355 6 102 332 286 164 205 301 199 216 260 186 273 270 325 225 297 264 360 359 345 340 328 339 348 358 8 27 337 328 207 125 12 103 259 109 58 78 38 111 99 109 138
68 358 332 49 126 134 142 202 246 231 200 185 229 70 7 310 210 293 306 321 330 337 3 340 263 162 220 268 318 321 332 341 59 58 227 250 342 358 28 57 89 109 102 175 174
62 244 193 272 316 95 83 188 165 231 244 209 190 150 154 290 304 265 272 324 308 345 17 70 331 349 277 273 285 318 334 343 54 319 121 207 104 337 6 169 195 194 217 180 180
149 153 16 139 101 94 318 238 194 247 159 229 164 212 165 221 200 277 331 354 276 333 41 3 317 344 292 349 353 344 360 351 14 11 61 75 29 350 41 98 87 208 215 233 224
158 116 110 172 119 108 216 205 216 131 291 204 192 114 267 250 237 253 268 258 253 290 319 64 7 352 278 3 344 357 325 340 328 357 350 135 237 153 62 113 155 230 220 227 215